AAL863 MKJS-KCLT

Flight info

Callsign AAL863
Flight time N/A
Altitude 36000
Route ELUTU5 HAWLS DCT EPSIM UM779 ZEUSS Y217 OCTAL Q77 MATLK Q87 ZERBO/N0455F370 Q87 VIYAP Q69 ISUZO Q409 KONEY Q83 WURFL DCT CHECR STOCR4
Aircraft B738/M-SDE2E3FGHIRWXY/LB1

Departure

Time 2026-05-04 03:09
Airport Sangster International Airport (MKJS)

Arrival

Time N/A
Airport Charlotte Douglas International Airport (KCLT)
Time Latitude Longitude Altitude Speed Heading
2026-05-04 02:55 18.49981 -77.91764 15 ft 0 kts 155°
2026-05-04 03:02 18.49986 -77.91767 15 ft 2 kts 156°
2026-05-04 03:02 18.50002 -77.91774 15 ft 2 kts 162°
2026-05-04 03:02 18.50018 -77.91778 15 ft 2 kts 172°
2026-05-04 03:03 18.50033 -77.91779 15 ft 2 kts 188°
2026-05-04 03:03 18.50047 -77.91775 15 ft 2 kts 217°
2026-05-04 03:03 18.50055 -77.91767 15 ft 0 kts 245°
2026-05-04 03:06 18.50050 -77.91779 15 ft 4 kts 245°
2026-05-04 03:06 18.50033 -77.91818 15 ft 8 kts 245°
2026-05-04 03:06 18.50005 -77.91881 15 ft 11 kts 245°
2026-05-04 03:06 18.49968 -77.91966 15 ft 14 kts 245°
2026-05-04 03:07 18.49923 -77.92068 15 ft 17 kts 245°
2026-05-04 03:07 18.49871 -77.92186 15 ft 19 kts 245°
2026-05-04 03:07 18.49813 -77.92318 15 ft 19 kts 243°
2026-05-04 03:07 18.49815 -77.92417 15 ft 11 kts 323°
2026-05-04 03:08 18.49855 -77.92446 15 ft 3 kts 338°
2026-05-04 03:08 18.49876 -77.92444 15 ft 4 kts 37°
2026-05-04 03:08 18.49877 -77.92443 15 ft 0 kts 44°
2026-05-04 03:08 18.49884 -77.92435 15 ft 13 kts 44°
2026-05-04 03:09 18.50048 -77.92091 15 ft 91 kts 65°
2026-05-04 03:09 18.50409 -77.91268 17 ft 156 kts 65°
2026-05-04 03:09 18.50914 -77.90123 471 ft 182 kts 65°
2026-05-04 03:09 18.51482 -77.88886 1246 ft 190 kts 59°
2026-05-04 03:10 18.52246 -77.87802 2317 ft 179 kts 49°
2026-05-04 03:10 18.53127 -77.86809 2846 ft 198 kts 47°
2026-05-04 03:10 18.54118 -77.85675 3149 ft 223 kts 49°
2026-05-04 03:10 18.55190 -77.84398 3598 ft 240 kts 50°
2026-05-04 03:11 18.56281 -77.83053 4426 ft 243 kts 50°
2026-05-04 03:11 18.57629 -77.81914 4987 ft 261 kts 27°
2026-05-04 03:11 18.59442 -77.81474 5629 ft 275 kts
2026-05-04 03:11 18.61340 -77.81774 6430 ft 281 kts 346°
2026-05-04 03:12 18.63239 -77.82364 7235 ft 286 kts 344°
2026-05-04 03:12 18.65173 -77.82988 8048 ft 289 kts 344°
2026-05-04 03:12 18.67113 -77.83592 8833 ft 293 kts 344°
2026-05-04 03:12 18.69089 -77.84189 9611 ft 297 kts 345°
2026-05-04 03:13 18.71085 -77.84777 10372 ft 301 kts 345°
2026-05-04 03:13 18.73101 -77.85360 11103 ft 306 kts 345°
2026-05-04 03:13 18.75214 -77.85960 11430 ft 325 kts 346°
2026-05-04 03:13 18.77462 -77.86591 11687 ft 344 kts 346°
2026-05-04 03:14 18.79833 -77.87249 11967 ft 360 kts 346°
2026-05-04 03:14 18.82280 -77.87923 12458 ft 368 kts 346°
2026-05-04 03:14 18.84776 -77.88606 13069 ft 373 kts 345°
2026-05-04 03:14 18.87290 -77.89288 13696 ft 376 kts 345°
2026-05-04 03:15 18.89844 -77.89979 14325 ft 379 kts 345°
2026-05-04 03:15 18.92397 -77.90670 14924 ft 382 kts 345°
2026-05-04 03:15 18.94983 -77.91370 15470 ft 386 kts 345°
2026-05-04 03:15 18.97589 -77.92075 16007 ft 390 kts 345°
2026-05-04 03:16 19.00230 -77.92789 16528 ft 393 kts 345°
2026-05-04 03:16 19.02923 -77.93517 17047 ft 397 kts 345°
2026-05-04 03:16 19.05612 -77.94245 17541 ft 400 kts 345°
2026-05-04 03:16 19.08315 -77.94976 18022 ft 404 kts 345°
2026-05-04 03:17 19.11036 -77.95712 18489 ft 407 kts 344°
2026-05-04 03:17 19.13792 -77.96457 18945 ft 410 kts 344°
2026-05-04 03:17 19.16568 -77.97137 19383 ft 414 kts 348°
2026-05-04 03:17 19.19449 -77.97544 19749 ft 419 kts 353°
2026-05-04 03:18 19.22352 -77.97774 20180 ft 422 kts 355°
2026-05-04 03:18 19.25285 -77.97958 20590 ft 425 kts 355°
2026-05-04 03:18 19.28247 -77.98150 20990 ft 427 kts 355°
2026-05-04 03:18 19.31189 -77.98346 21373 ft 430 kts 354°
2026-05-04 03:19 19.34200 -77.98551 21754 ft 432 kts 354°
2026-05-04 03:19 19.37218 -77.98760 22113 ft 435 kts 354°
2026-05-04 03:19 19.40235 -77.98971 22469 ft 437 kts 354°
2026-05-04 03:19 19.43275 -77.99185 22816 ft 440 kts 354°
2026-05-04 03:20 19.46336 -77.99402 23150 ft 442 kts 354°
2026-05-04 03:20 19.49408 -77.99620 23481 ft 444 kts 354°
2026-05-04 03:20 19.52485 -77.99838 23810 ft 446 kts 354°
2026-05-04 03:20 19.55588 -78.00059 24131 ft 447 kts 353°
2026-05-04 03:21 19.58695 -78.00280 24435 ft 449 kts 353°
2026-05-04 03:21 19.61859 -78.00506 24732 ft 451 kts 353°
2026-05-04 03:21 19.64992 -78.00731 25016 ft 453 kts 353°
2026-05-04 03:21 19.68138 -78.00956 25262 ft 456 kts 353°
2026-05-04 03:22 19.71296 -78.01182 25504 ft 458 kts 353°
2026-05-04 03:22 19.74482 -78.01411 25781 ft 459 kts 353°
2026-05-04 03:22 19.77674 -78.01640 26046 ft 461 kts 353°
2026-05-04 03:22 19.80867 -78.01874 26298 ft 462 kts 352°
2026-05-04 03:23 19.84053 -78.02264 26556 ft 462 kts 348°
2026-05-04 03:23 19.87222 -78.02804 26798 ft 463 kts 347°
2026-05-04 03:23 19.90400 -78.03413 27014 ft 465 kts 346°
2026-05-04 03:23 19.93591 -78.04023 27266 ft 466 kts 346°
2026-05-04 03:24 19.96774 -78.04623 27499 ft 468 kts 346°
2026-05-04 03:24 20.00023 -78.05229 27736 ft 469 kts 346°
2026-05-04 03:24 20.03237 -78.05823 27968 ft 470 kts 346°
2026-05-04 03:24 20.06461 -78.06416 28169 ft 472 kts 346°
2026-05-04 03:25 20.09698 -78.07009 28401 ft 473 kts 346°
2026-05-04 03:25 20.12933 -78.07600 28628 ft 474 kts 346°
2026-05-04 03:25 20.16180 -78.08191 28848 ft 474 kts 346°
2026-05-04 03:25 20.19427 -78.08780 29057 ft 475 kts 346°
2026-05-04 03:26 20.22696 -78.09373 29266 ft 476 kts 346°
2026-05-04 03:26 20.25951 -78.09963 29461 ft 477 kts 346°
2026-05-04 03:26 20.29210 -78.10554 29709 ft 476 kts 346°
2026-05-04 03:26 20.32477 -78.11147 30035 ft 474 kts 346°
2026-05-04 03:27 20.35709 -78.11733 30360 ft 472 kts 346°
2026-05-04 03:27 20.38944 -78.12320 30680 ft 470 kts 345°
2026-05-04 03:27 20.42154 -78.12903 31000 ft 468 kts 345°
2026-05-04 03:27 20.45352 -78.13484 31328 ft 466 kts 345°
2026-05-04 03:28 20.48576 -78.14070 31666 ft 464 kts 345°
2026-05-04 03:28 20.51748 -78.14646 31946 ft 463 kts 345°
2026-05-04 03:28 20.54904 -78.15220 32225 ft 462 kts 345°
2026-05-04 03:28 20.58064 -78.15795 32504 ft 461 kts 345°
2026-05-04 03:29 20.61220 -78.16370 32773 ft 460 kts 345°
2026-05-04 03:29 20.64368 -78.16944 33070 ft 459 kts 345°
2026-05-04 03:29 20.67503 -78.17515 33356 ft 457 kts 345°
2026-05-04 03:29 20.70678 -78.18093 33639 ft 456 kts 345°
2026-05-04 03:30 20.73758 -78.18655 33912 ft 455 kts 345°
2026-05-04 03:30 20.76906 -78.19229 34140 ft 456 kts 345°
2026-05-04 03:30 20.80040 -78.19800 34393 ft 455 kts 345°
2026-05-04 03:30 20.83147 -78.20366 34671 ft 454 kts 345°
2026-05-04 03:31 20.86259 -78.20934 34952 ft 453 kts 345°
2026-05-04 03:31 20.89357 -78.21501 35082 ft 454 kts 346°
2026-05-04 03:31 20.92472 -78.22070 35090 ft 455 kts 345°
2026-05-04 03:32 20.98693 -78.23209 35103 ft 454 kts 345°
2026-05-04 03:32 21.04918 -78.24350 35106 ft 454 kts 345°
2026-05-04 03:33 21.11137 -78.25489 35108 ft 455 kts 345°
2026-05-04 03:33 21.17411 -78.26640 35109 ft 455 kts 345°
2026-05-04 03:34 21.23653 -78.27786 35109 ft 455 kts 345°
2026-05-04 03:34 21.29886 -78.28932 35110 ft 455 kts 345°
2026-05-04 03:35 21.36119 -78.30080 35110 ft 455 kts 345°
2026-05-04 03:35 21.42394 -78.31236 35110 ft 455 kts 345°
2026-05-04 03:36 21.48625 -78.32382 35110 ft 455 kts 345°
2026-05-04 03:36 21.54856 -78.33529 35110 ft 455 kts 345°
2026-05-04 03:37 21.61098 -78.34681 35110 ft 455 kts 345°
2026-05-04 03:37 21.67323 -78.35830 35111 ft 454 kts 345°
2026-05-04 03:38 21.73542 -78.36979 35111 ft 455 kts 345°
2026-05-04 03:38 21.79772 -78.38132 35111 ft 455 kts 345°
2026-05-04 03:39 21.85995 -78.39285 35112 ft 454 kts 345°
2026-05-04 03:39 21.92254 -78.40445 35112 ft 455 kts 345°
2026-05-04 03:40 21.98485 -78.41601 35112 ft 454 kts 345°
2026-05-04 03:40 22.04698 -78.42755 35112 ft 454 kts 345°
2026-05-04 03:41 22.10916 -78.43911 35112 ft 454 kts 345°
2026-05-04 03:41 22.17146 -78.45070 35112 ft 454 kts 345°
2026-05-04 03:42 22.23387 -78.46230 35112 ft 454 kts 345°
2026-05-04 03:42 22.29607 -78.47389 35112 ft 454 kts 345°
2026-05-04 03:43 22.35824 -78.48549 35112 ft 454 kts 345°
2026-05-04 03:43 22.42054 -78.49714 35112 ft 454 kts 345°
2026-05-04 03:44 22.48309 -78.50883 35112 ft 455 kts 345°
2026-05-04 03:44 22.54523 -78.52046 35112 ft 453 kts 345°
2026-05-04 03:45 22.60711 -78.53212 35112 ft 452 kts 345°
2026-05-04 03:45 22.66877 -78.54375 35112 ft 452 kts 345°
2026-05-04 03:46 22.73096 -78.55549 35112 ft 452 kts 345°
2026-05-04 03:46 22.79288 -78.56716 35112 ft 452 kts 345°
2026-05-04 03:47 22.85522 -78.57887 35112 ft 452 kts 345°
2026-05-04 03:47 22.91716 -78.59053 35112 ft 452 kts 345°
2026-05-04 03:48 22.97833 -78.60206 35112 ft 452 kts 344°
2026-05-04 03:48 23.04038 -78.61376 35083 ft 453 kts 344°
2026-05-04 03:49 23.10238 -78.62547 35071 ft 452 kts 344°
2026-05-04 03:49 23.15423 -78.63524 35068 ft 453 kts 344°
2026-05-04 03:50 23.21620 -78.64693 35068 ft 453 kts 344°
2026-05-04 03:50 23.27819 -78.65864 35068 ft 452 kts 344°
2026-05-04 03:51 23.34010 -78.67036 35067 ft 452 kts 344°
2026-05-04 03:51 23.40168 -78.68203 35068 ft 452 kts 344°
2026-05-04 03:52 23.46361 -78.69377 35068 ft 452 kts 344°
2026-05-04 03:52 23.52603 -78.70562 35067 ft 452 kts 344°
2026-05-04 03:53 23.58797 -78.71739 35068 ft 452 kts 344°
2026-05-04 03:53 23.64981 -78.72916 35068 ft 452 kts 344°
2026-05-04 03:54 23.71178 -78.74094 35068 ft 452 kts 344°
2026-05-04 03:54 23.77310 -78.75262 35070 ft 452 kts 344°
2026-05-04 03:55 23.83552 -78.76453 35070 ft 452 kts 344°
2026-05-04 03:55 23.89740 -78.77636 35070 ft 452 kts 344°
2026-05-04 03:56 23.95921 -78.78840 35073 ft 450 kts 341°
2026-05-04 03:56 24.01797 -78.80999 35063 ft 440 kts 329°
2026-05-04 03:57 24.07122 -78.84164 35021 ft 434 kts 324°
2026-05-04 03:57 24.12315 -78.87501 35002 ft 432 kts 323°
2026-05-04 03:58 24.20087 -78.92504 34994 ft 433 kts 323°
2026-05-04 03:58 24.25279 -78.95851 34994 ft 433 kts 323°
2026-05-04 03:59 24.30467 -78.99195 34994 ft 432 kts 323°
2026-05-04 03:59 24.35645 -79.02525 34994 ft 432 kts 323°
2026-05-04 04:00 24.40854 -79.05883 34994 ft 432 kts 323°
2026-05-04 04:00 24.46029 -79.09224 34994 ft 432 kts 323°
2026-05-04 04:01 24.51194 -79.12563 34994 ft 432 kts 323°
2026-05-04 04:01 24.56369 -79.15912 34994 ft 432 kts 323°
2026-05-04 04:02 24.61550 -79.19269 34994 ft 432 kts 323°
2026-05-04 04:02 24.66709 -79.22608 35004 ft 434 kts 322°
2026-05-04 04:03 24.71955 -79.26016 35041 ft 442 kts 322°
2026-05-04 04:03 24.77289 -79.29485 35051 ft 443 kts 322°
2026-05-04 04:04 24.82576 -79.32926 35061 ft 442 kts 321°
2026-05-04 04:04 24.87863 -79.36370 35063 ft 443 kts 321°
2026-05-04 04:05 24.93151 -79.39818 35059 ft 442 kts 321°
2026-05-04 04:05 24.98438 -79.43269 35062 ft 442 kts 321°
2026-05-04 04:06 25.03754 -79.46741 35065 ft 442 kts 321°
2026-05-04 04:06 25.09041 -79.50199 35066 ft 442 kts 321°
2026-05-04 04:07 25.14325 -79.53658 35067 ft 442 kts 321°
2026-05-04 04:07 25.19603 -79.57114 35070 ft 442 kts 321°
2026-05-04 04:08 25.24894 -79.60577 35068 ft 442 kts 321°
2026-05-04 04:08 25.30191 -79.64056 35068 ft 442 kts 321°
2026-05-04 04:09 25.35464 -79.67526 35071 ft 442 kts 321°
2026-05-04 04:09 25.40769 -79.71021 35075 ft 442 kts 321°
2026-05-04 04:10 25.46080 -79.74521 35076 ft 442 kts 321°
2026-05-04 04:10 25.51349 -79.77993 35081 ft 442 kts 321°
2026-05-04 04:11 25.56650 -79.81493 35082 ft 442 kts 321°
2026-05-04 04:11 25.61958 -79.85001 35079 ft 441 kts 321°
2026-05-04 04:12 25.67218 -79.88483 35080 ft 441 kts 321°
2026-05-04 04:12 25.72470 -79.91963 35082 ft 440 kts 321°
2026-05-04 04:13 25.77723 -79.95441 35081 ft 440 kts 321°
2026-05-04 04:13 25.82963 -79.98908 35079 ft 440 kts 321°
2026-05-04 04:14 25.88215 -80.02388 35072 ft 439 kts 321°
2026-05-04 04:14 25.93486 -80.05882 35074 ft 439 kts 320°
2026-05-04 04:15 25.98702 -80.09353 35073 ft 439 kts 320°
2026-05-04 04:15 26.03934 -80.12841 35068 ft 439 kts 320°
2026-05-04 04:16 26.09179 -80.16343 35062 ft 439 kts 320°
2026-05-04 04:16 26.14441 -80.19793 35058 ft 443 kts 324°
2026-05-04 04:17 26.20158 -80.22551 35057 ft 451 kts 329°
2026-05-04 04:17 26.26015 -80.25115 35056 ft 451 kts 329°
2026-05-04 04:18 26.31847 -80.27678 35055 ft 451 kts 329°
2026-05-04 04:18 26.37671 -80.30245 35056 ft 450 kts 329°
2026-05-04 04:19 26.43530 -80.32833 35060 ft 451 kts 329°
2026-05-04 04:19 26.49325 -80.35390 35060 ft 451 kts 329°
2026-05-04 04:20 26.55187 -80.37976 35062 ft 451 kts 329°
2026-05-04 04:20 26.60994 -80.40543 35075 ft 449 kts 329°
2026-05-04 04:21 26.66805 -80.43117 35082 ft 449 kts 329°
2026-05-04 04:21 26.72618 -80.45695 35083 ft 449 kts 329°
2026-05-04 04:22 26.78412 -80.48269 35082 ft 449 kts 329°
2026-05-04 04:22 26.84238 -80.50860 35083 ft 449 kts 329°
2026-05-04 04:23 26.90039 -80.53442 35083 ft 449 kts 329°
2026-05-04 04:23 26.95825 -80.56021 35082 ft 448 kts 328°
2026-05-04 04:24 27.01610 -80.58603 35082 ft 448 kts 329°
2026-05-04 04:24 27.07403 -80.61191 35083 ft 448 kts 328°
2026-05-04 04:25 27.13154 -80.63763 35082 ft 445 kts 328°
2026-05-04 04:25 27.18936 -80.66351 35083 ft 444 kts 328°
2026-05-04 04:26 27.24673 -80.68923 35082 ft 445 kts 328°
2026-05-04 04:26 27.30385 -80.71486 35083 ft 441 kts 328°
2026-05-04 04:27 27.36080 -80.74045 35083 ft 442 kts 328°
2026-05-04 04:27 27.41802 -80.76618 35082 ft 444 kts 328°
2026-05-04 04:28 27.47542 -80.79203 35085 ft 441 kts 328°
2026-05-04 04:28 27.53226 -80.81764 35083 ft 441 kts 328°
2026-05-04 04:29 27.58917 -80.84326 35083 ft 441 kts 328°
2026-05-04 04:29 27.64510 -80.86853 35093 ft 438 kts 328°
2026-05-04 04:30 27.70218 -80.89437 35104 ft 437 kts 328°
2026-05-04 04:30 27.75901 -80.92014 35105 ft 439 kts 328°
2026-05-04 04:31 27.81584 -80.94509 35105 ft 444 kts 332°
2026-05-04 04:31 27.86632 -80.95877 35104 ft 455 kts 339°
2026-05-04 04:32 27.93966 -80.97301 35102 ft 459 kts 340°
2026-05-04 04:32 28.00274 -80.98523 35104 ft 461 kts 340°
2026-05-04 04:33 28.05547 -80.99548 35101 ft 461 kts 340°
2026-05-04 04:33 28.11862 -81.00775 35099 ft 461 kts 340°
2026-05-04 04:34 28.18212 -81.02015 35105 ft 464 kts 340°
2026-05-04 04:34 28.24566 -81.03259 35101 ft 464 kts 340°
2026-05-04 04:35 28.30920 -81.04505 35097 ft 464 kts 339°
2026-05-04 04:35 28.37189 -81.05987 35114 ft 454 kts 332°
2026-05-04 04:36 28.43018 -81.08383 35126 ft 449 kts 328°
2026-05-04 04:36 28.46041 -81.09689 35249 ft 453 kts 328°
2026-05-04 04:36 28.48970 -81.10955 35606 ft 450 kts 328°
2026-05-04 04:37 28.57748 -81.14749 36133 ft 452 kts 329°
2026-05-04 04:37 28.60681 -81.16016 36137 ft 451 kts 329°
2026-05-04 04:38 28.66522 -81.18527 36142 ft 448 kts 329°
2026-05-04 04:38 28.72353 -81.21046 36143 ft 449 kts 329°
2026-05-04 04:39 28.78221 -81.23589 36140 ft 449 kts 329°
2026-05-04 04:39 28.84044 -81.26116 36142 ft 449 kts 329°
2026-05-04 04:40 28.89943 -81.28516 36149 ft 456 kts 334°
2026-05-04 04:40 28.96260 -81.29836 36150 ft 471 kts 345°
2026-05-04 04:41 29.02728 -81.30333 36153 ft 473 kts 347°
2026-05-04 04:41 29.09285 -81.30832 36163 ft 472 kts 346°
2026-05-04 04:42 29.15837 -81.31352 36159 ft 472 kts 346°
2026-05-04 04:42 29.22430 -81.31882 36157 ft 472 kts 346°
2026-05-04 04:43 29.28975 -81.32397 36154 ft 473 kts 347°
2026-05-04 04:43 29.35550 -81.32779 36148 ft 474 kts 347°
2026-05-04 04:44 29.42119 -81.33161 36158 ft 474 kts 347°
2026-05-04 04:44 29.48687 -81.33547 36156 ft 474 kts 347°
2026-05-04 04:45 29.55135 -81.33927 36159 ft 473 kts 347°
2026-05-04 04:47 29.78177 -81.35292 36170 ft 474 kts 347°
2026-05-04 04:47 29.84745 -81.35682 36170 ft 474 kts 347°
2026-05-04 04:48 29.91321 -81.36073 36171 ft 473 kts 347°
2026-05-04 04:49 30.07731 -81.37054 36171 ft 473 kts 347°
2026-05-04 04:49 30.14361 -81.37450 36171 ft 474 kts 347°
2026-05-04 04:50 30.20927 -81.37833 36171 ft 474 kts 347°
2026-05-04 04:50 30.27505 -81.38218 36171 ft 474 kts 347°
2026-05-04 04:51 30.34111 -81.38606 36171 ft 473 kts 347°
2026-05-04 04:51 30.40664 -81.38992 36171 ft 473 kts 347°
2026-05-04 04:52 30.47280 -81.39376 36171 ft 474 kts 348°
2026-05-04 04:52 30.53846 -81.39728 36171 ft 474 kts 348°
2026-05-04 04:53 30.60427 -81.40083 36171 ft 474 kts 348°
2026-05-04 04:53 30.67005 -81.40438 36171 ft 474 kts 348°
2026-05-04 04:54 30.73578 -81.40794 36171 ft 474 kts 348°
2026-05-04 04:54 30.80159 -81.41150 36171 ft 474 kts 348°
2026-05-04 04:55 30.86762 -81.41507 36171 ft 474 kts 348°
2026-05-04 04:55 30.93342 -81.41864 36171 ft 474 kts 348°
2026-05-04 04:56 30.99962 -81.42222 36171 ft 474 kts 348°
2026-05-04 04:56 31.06540 -81.42580 36171 ft 474 kts 348°
2026-05-04 04:57 31.13114 -81.42939 36171 ft 474 kts 348°
2026-05-04 04:57 31.19691 -81.43299 36171 ft 474 kts 348°
2026-05-04 04:58 31.26264 -81.43646 36171 ft 475 kts 348°
2026-05-04 04:58 31.32938 -81.43697 36174 ft 477 kts 350°
2026-05-04 04:59 31.39561 -81.43733 36173 ft 477 kts 350°
2026-05-04 04:59 31.46215 -81.43499 36174 ft 486 kts 358°
2026-05-04 05:00 31.52897 -81.41774 36179 ft 501 kts 10°
2026-05-04 05:01 31.62756 -81.37622 36175 ft 503 kts 12°
2026-05-04 05:01 31.69349 -81.34876 36171 ft 503 kts 12°
2026-05-04 05:02 31.75908 -81.32160 36168 ft 503 kts 12°
2026-05-04 05:02 31.82562 -81.29402 36161 ft 502 kts 12°
2026-05-04 05:03 31.89140 -81.26674 36156 ft 502 kts 12°
2026-05-04 05:04 32.02005 -81.19988 36158 ft 514 kts 23°
2026-05-04 05:04 32.08246 -81.15796 36164 ft 513 kts 23°
2026-05-04 05:06 32.30332 -81.02592 36169 ft 493 kts
2026-05-04 05:06 32.33684 -81.02055 36170 ft 482 kts 354°
2026-05-04 05:07 32.40320 -81.02055 36171 ft 478 kts 351°
2026-05-04 05:07 32.46965 -81.01992 36171 ft 479 kts 352°
2026-05-04 05:09 32.70043 -80.84798 36170 ft 505 kts 33°
2026-05-04 05:09 32.72860 -80.82358 36171 ft 501 kts 27°
2026-05-04 05:10 32.78915 -80.78278 36171 ft 496 kts 22°
2026-05-04 05:10 32.84983 -80.74401 36171 ft 497 kts 22°
2026-05-04 05:11 32.91103 -80.70451 36171 ft 496 kts 22°
2026-05-04 05:11 32.97100 -80.66557 36171 ft 495 kts 23°